(278467) = 2007 TE190

Discovered at Mount Lemmon on 2007-10-04 by Mt. Lemmon Survey.

Orbit

Orbit type: Main Belt

Note: WebGL enabled browser required.

epoch2023-09-13.0
epoch JD2460200.5
perihelion date2022-07-28.09091
perihelion JD2459788.59091
argument of perihelion (°)99.09148
ascending node (°)174.72169
inclination (°)17.52477
eccentricity0.0613590
perihelion distance (AU)2.8509441
Tisserand w.r.t. Jupiter3.2
ΔV w.r.t. Earth (km/sec)11.9
semimajor axis (AU)3.0373105
mean anomaly (°)76.69577
mean daily motion (°/day)0.18619590
aphelion distance (AU)3.224
period (years)5.29
P-vector [x]0.07071933
P-vector [y]-0.99185414
P-vector [z]-0.10594403
Q-vector [x]0.99711155
Q-vector [y]0.07324170
Q-vector [z]-0.02010520
absolute magnitude15.84
phase slope0.15
uncertainty0
referenceMPO 778997
observations used272
oppositions15
arc length (days)7646
first opposition used2002
last opposition used2023
residual rms (arc-secs)0.74
perturbers coarse indicatorM-v
perturbers precise indicator003Ek
first observation date used2002-12-07.0
last observation date used2023-11-13.0
computer nameMPCLINUX
JD of orbit computation2456612.657147
perihelion JD uncertainty (days)3.6288E-04
argument of perihelion uncertainty (°)7.3642E-05
ascending node uncertainty (°)2.2340E-05
inclination uncertainty (°)8.3605E-06
eccentricity uncertainty 6.2826E-08
perihelion distance uncertainty (AU)1.8951E-07
Minimum Orbit Intersection Distances (in AU)
for orbit epoch: 2460200.5, reference: E2023-VO2
Mercury2.42546
Venus2.17258
Earth1.89906
Mars1.37141
Jupiter1.91537
Saturn6.03039
Uranus15.3603
Neptune26.7618

Observations

282 total observations over interval: 2002 12 07.15972 – 2023 11 13.253582
These data are available for download (format description).

Date (UT) J2000 RA J2000 Dec Magn Location Ref
2002 12 07.15972 00 41 53.67 -06 52 47.5 22.1 V 291 – LPL/Spacewatch II MPS 229889
2002 12 07.17010 00 41 53.81 -06 52 46.3 22.0 V 291 – LPL/Spacewatch II MPS 229889
2002 12 07.18055 00 41 53.94 -06 52 46.5 22.3 V 291 – LPL/Spacewatch II MPS 229889
2005 04 09.25124 10 31 40.01 +06 51 51.5 19.9 R G96 – Mt. Lemmon Survey MPS 229889
2005 04 09.25657 10 31 39.94 +06 51 54.9 20.0 R G96 – Mt. Lemmon Survey MPS 229889
2005 04 09.26189 10 31 39.83 +06 51 56.1 20.2 R G96 – Mt. Lemmon Survey MPS 229889
2005 04 09.26722 10 31 39.71 +06 51 57.8 20.8 R G96 – Mt. Lemmon Survey MPS 229889
2005 05 04.15120 10 31 56.48 +08 53 33.7 20.5 R G96 – Mt. Lemmon Survey MPS 229889
2005 05 04.15921 10 31 56.58 +08 53 35.4 19.5 R G96 – Mt. Lemmon Survey MPS 229889
2005 05 04.16721 10 31 56.69 +08 53 36.7 19.8 R G96 – Mt. Lemmon Survey MPS 229889
2005 05 04.17517 10 31 56.81 +08 53 37.7 20.9 R G96 – Mt. Lemmon Survey MPS 229889
2006 06 18.36212 16 47 00.19 +03 56 46.7 20.2 V 691 – Steward Observatory, Kitt Peak-Spacewatch MPS 229889
2006 06 18.37946 16 46 59.44 +03 56 46.2 20.3 V 691 – Steward Observatory, Kitt Peak-Spacewatch MPS 229889
2006 06 18.39678 16 46 58.67 +03 56 45.5 20.6 V 691 – Steward Observatory, Kitt Peak-Spacewatch MPS 229889
2007 09 14.31682 23 19 26.89 -01 59 05.4 19.4 R 699 – Lowell Observatory-LONEOS MPS 229889
2007 09 14.33968 23 19 25.91 -01 59 19.8   699 – Lowell Observatory-LONEOS MPS 229889
2007 09 14.36253 23 19 25.12 -01 59 33.2   699 – Lowell Observatory-LONEOS MPS 229889
2007 09 14.38535 23 19 23.99 -01 59 45.7   699 – Lowell Observatory-LONEOS MPS 229889
2007 09 15.27108 23 18 48.96 -02 08 36.0 19.6 V G96 – Mt. Lemmon Survey MPS 229889
2007 09 15.27687 23 18 48.74 -02 08 39.7 19.7 V G96 – Mt. Lemmon Survey MPS 229889
2007 09 15.28243 23 18 48.49 -02 08 43.1 19.6 V G96 – Mt. Lemmon Survey MPS 229889
2007 09 15.28801 23 18 48.27 -02 08 46.5 19.8 V G96 – Mt. Lemmon Survey MPS 229889
2007 10 04.22751 23 07 32.44 -05 07 52.6 20.1 V G96 – Mt. Lemmon Survey MPS 223656
2007 10 04.23457 23 07 32.23 -05 07 56.8 20.2 V G96 – Mt. Lemmon Survey MPS 223656
2007 10 04.24164 23 07 31.98 -05 07 59.9 20.1 V G96 – Mt. Lemmon Survey MPS 223656
2007 10 04.24872 23 07 31.76 -05 08 03.7 20.3 V G96 – Mt. Lemmon Survey MPS 223656
2007 10 11.23733 23 04 31.54 -06 04 29.7 20.4 V G96 – Mt. Lemmon Survey MPS 223656
2007 10 11.24443 23 04 31.36 -06 04 33.0 20.3 V G96 – Mt. Lemmon Survey MPS 223656
2007 10 11.25157 23 04 31.22 -06 04 36.3 20.3 V G96 – Mt. Lemmon Survey MPS 223656
2007 10 11.25880 23 04 31.04 -06 04 40.1 19.9 V G96 – Mt. Lemmon Survey MPS 223656
2007 10 19.19516 23 02 11.65 -06 59 17.5 20.7 V G96 – Mt. Lemmon Survey MPS 229889
2007 10 19.20169 23 02 11.58 -06 59 19.6 20.6 V G96 – Mt. Lemmon Survey MPS 229889
2007 10 19.20824 23 02 11.47 -06 59 21.9 20.4 V G96 – Mt. Lemmon Survey MPS 229889
2007 10 19.21484 23 02 11.36 -06 59 24.5 20.5 V G96 – Mt. Lemmon Survey MPS 229889
2008 12 30.19167 04 15 22.75 -02 03 33.9 21.1 V G96 – Mt. Lemmon Survey MPS 270200
2008 12 30.19814 04 15 22.57 -02 03 32.9 21.1 V G96 – Mt. Lemmon Survey MPS 270200
2008 12 30.20457 04 15 22.35 -02 03 31.6 21.0 V G96 – Mt. Lemmon Survey MPS 270200
2008 12 30.21108 04 15 22.14 -02 03 30.6 20.8 V G96 – Mt. Lemmon Survey MPS 270200
2010 02 12.377985 09 17 57.667 +01 01 00.30 20.70 g F51 – Pan-STARRS 1, Haleakala MPS 319383
2010 02 12.387070 09 17 57.254 +01 01 04.61 20.76 g F51 – Pan-STARRS 1, Haleakala MPS 319383
2011 02 11.49460 15 09 06.76 -06 49 13.6 20.8 V G96 – Mt. Lemmon Survey MPS 369577
2011 02 11.50036 15 09 07.05 -06 49 13.1 21.1 V G96 – Mt. Lemmon Survey MPS 369578
2011 02 11.50611 15 09 07.27 -06 49 11.4 21.6 V G96 – Mt. Lemmon Survey MPS 369578
2011 02 11.51186 15 09 07.56 -06 49 10.0 21.4 V G96 – Mt. Lemmon Survey MPS 369578
2011 05 13.36938 15 00 54.287 +04 26 43.55 19.9 r F51 – Pan-STARRS 1, Haleakala MPS 382222
2011 05 13.37910 15 00 53.862 +04 26 46.74 19.7 r F51 – Pan-STARRS 1, Haleakala MPS 382222
2011 05 13.40131 15 00 52.871 +04 26 54.45 19.9 i F51 – Pan-STARRS 1, Haleakala MPS 382222
2012 08 07.35457 21 36 13.882 +01 02 53.80 20.5 r F51 – Pan-STARRS 1, Haleakala MPS 429307
2012 08 07.36422 21 36 13.463 +01 02 50.00 19.9 r F51 – Pan-STARRS 1, Haleakala MPS 429307
2012 08 10.39859 21 34 08.212 +00 39 37.36 20.4 g F51 – Pan-STARRS 1, Haleakala MPS 429978
2012 08 10.40982 21 34 07.735 +00 39 31.89 20.3 g F51 – Pan-STARRS 1, Haleakala MPS 429978
2012 08 27.33679 21 22 39.492 -01 50 26.49 19.5 i F51 – Pan-STARRS 1, Haleakala MPS 431300
2012 08 27.34849 21 22 39.029 -01 50 33.03 19.7 i F51 – Pan-STARRS 1, Haleakala MPS 431300
2013 11 04.43443 03 15 07.097 -02 10 07.69 20.5 w F51 – Pan-STARRS 1, Haleakala MPS 486995
2013 11 04.46197 03 15 05.831 -02 10 18.44 20.5 w F51 – Pan-STARRS 1, Haleakala MPS 486995
2013 11 04.47557 03 15 05.202 -02 10 23.63 20.3 w F51 – Pan-STARRS 1, Haleakala MPS 486995
2014 11 23.55374 08 20 54.595 +00 04 07.52 21.2 w F51 – Pan-STARRS 1, Haleakala MPS 549375
2014 11 23.56636 08 20 54.631 +00 04 04.24 21.1 w F51 – Pan-STARRS 1, Haleakala MPS 549375
2014 11 23.57906 08 20 54.662 +00 04 01.04 21.2 w F51 – Pan-STARRS 1, Haleakala MPS 549375
2014 11 23.59180 08 20 54.716 +00 03 57.70 21.2 w F51 – Pan-STARRS 1, Haleakala MPS 549375
2014 11 25.55739 08 21 00.969 -00 04 17.85 21.1 w F51 – Pan-STARRS 1, Haleakala MPS 549375
2014 11 25.57016 08 21 00.976 -00 04 21.24 21.1 w F51 – Pan-STARRS 1, Haleakala MPS 549375
2014 11 25.58290 08 21 00.997 -00 04 24.35 21.3 w F51 – Pan-STARRS 1, Haleakala MPS 549375
2016 01 15.60383 13 21 47.838 -05 54 18.93 21.3 w F51 – Pan-STARRS 1, Haleakala MPS 673650
2016 01 15.61679 13 21 48.361 -05 54 18.63 21.2 w F51 – Pan-STARRS 1, Haleakala MPS 673650
2016 01 15.62977 13 21 48.932 -05 54 18.26 21.3 w F51 – Pan-STARRS 1, Haleakala MPS 673650
2016 01 15.64274 13 21 49.482 -05 54 18.13 21.5 w F51 – Pan-STARRS 1, Haleakala MPS 673650
2016 02 15.54829 13 36 16.699 -04 29 03.36 21.0 w F51 – Pan-STARRS 1, Haleakala MPS 685790
2016 02 15.55995 13 36 16.789 -04 28 59.69 20.9 w F51 – Pan-STARRS 1, Haleakala MPS 685790
2016 02 15.57164 13 36 16.906 -04 28 55.70 20.9 w F51 – Pan-STARRS 1, Haleakala MPS 685790
2016 02 15.58337 13 36 17.001 -04 28 52.20 21.2 w F51 – Pan-STARRS 1, Haleakala MPS 685790
2016 03 10.46034 13 34 10.295 -01 36 24.29 20.4 w F51 – Pan-STARRS 1, Haleakala MPS 692171
2016 03 10.47219 13 34 10.032 -01 36 17.97 20.4 w F51 – Pan-STARRS 1, Haleakala MPS 692171
2016 03 10.48402 13 34 09.777 -01 36 11.66 20.5 w F51 – Pan-STARRS 1, Haleakala MPS 692171
2016 03 10.49588 13 34 09.513 -01 36 05.21 20.4 w F51 – Pan-STARRS 1, Haleakala MPS 692171
2016 03 11.51668 13 33 48.031 -01 26 55.87 20.3 w F51 – Pan-STARRS 1, Haleakala MPS 695469
2016 03 11.53917 13 33 47.507 -01 26 43.58 20.2 w F51 – Pan-STARRS 1, Haleakala MPS 695469
2016 03 11.55041 13 33 47.248 -01 26 37.52 20.5 w F51 – Pan-STARRS 1, Haleakala MPS 695469
2016 03 19.33122 13 30 26.16 -00 13 36.1 20.4 r G45 – Space Surveillance Telescope, Atom Site MPS 707975
2016 03 19.33587 13 30 26.04 -00 13 33.2 19.0 r G45 – Space Surveillance Telescope, Atom Site MPS 707975
2016 03 19.34041 13 30 25.96 -00 13 30.5 19.7 r G45 – Space Surveillance Telescope, Atom Site MPS 707975
2016 03 19.34489 13 30 25.74 -00 13 28.8 19.6 r G45 – Space Surveillance Telescope, Atom Site MPS 707975
2016 03 31.68910 13 23 17.27 +01 48 36.2 19.8 R D29 – Purple Mountain Observatory, XuYi Station MPS 698289
2016 03 31.70321 13 23 16.71 +01 48 45.0 20.3 R D29 – Purple Mountain Observatory, XuYi Station MPS 698289
2016 03 31.71732 13 23 16.20 +01 48 53.7 20.6 R D29 – Purple Mountain Observatory, XuYi Station MPS 698289
2016 04 03.22160 13 21 38.11 +02 13 34.6 19.9 r G45 – Space Surveillance Telescope, Atom Site MPS 703396
2016 04 03.22664 13 21 37.92 +02 13 37.8 20.0 r G45 – Space Surveillance Telescope, Atom Site MPS 703396
2016 04 03.23200 13 21 37.67 +02 13 40.9 20.0 r G45 – Space Surveillance Telescope, Atom Site MPS 703396
2016 04 03.24211 13 21 37.28 +02 13 46.6 19.8 r G45 – Space Surveillance Telescope, Atom Site MPS 703396
2016 04 03.24602 13 21 37.14 +02 13 48.7 20.3 r G45 – Space Surveillance Telescope, Atom Site MPS 703396
